Weather in Volodymyr-Volynsky

Ukraine / Volyn Oblast     50˚50′47″N   24˚19′09″E
temp.,
°C
wind,
m/s
gust,
m/s
humid.,
%
clouds,
%
prec.,
mm/h
press.,
hPa
HPBL,
m
2 december, wed
wed223:00−3˚ese48800 0.0 1029268
02:00−4˚ese37820 0.0 1029215
05:00−4˚e37810 0.0 1028213
08:00−5˚e36880 0.0 1028196
11:00−3˚ese35800 0.0 1028294
14:00−1˚ese34752 0.0 1026439
17:00−3˚e369313 0.0 1025165
20:00−3˚ese389416 0.0 1024226
3 december, thu
thu323:00−2˚se588488 0.0 1023614
02:00−1˚sse488094 0.0 1022623
05:00−3˚ese4109165 0.0 1021297
08:00−3˚se6119351 0.0 1020419
11:00se7127784 0.0 1019513
14:00+2˚sse6127568 0.0 1017590
17:00+1˚se6148566 0.0 1016468
20:00se7148682 0.0 1015433
4 december, fri
fri423:00se7149046 0.0 1015439
02:00+1˚se6149073 0.0 1014442
05:00se6139036 0.0 1013446
08:00+1˚se7149164 0.0 1013489
11:00+3˚se71482100 0.0 1013565
14:00+5˚se7137858 0.0 1011622
17:00+3˚se615880 0.0 1012405
20:00+4˚se715870 0.0 1012434
5 december, sat
sat523:00+5˚se716903 0.0 1012412
02:00+5˚sse615912 0.0 1013437
05:00+5˚se6159112 0.0 1013438
08:00+5˚se5149212 0.0 1014393
11:00+8˚se7148532 0.0 1015645
14:00+9˚se8137952 0.0 1015753
17:00+8˚se7148390 0.0 1015651
20:00+7˚se8168662 0.0 1017590
6 december, sun
sun623:00+6˚se8168514 0.0 1017620
02:00+5˚se7158642 0.0 1017600
05:00+5˚se8168594 0.0 1018606
08:00+5˚se8168287 0.0 1018686
11:00+6˚se91476100 0.0 1018883
14:00+5˚se91473100 0.0 1018944
17:00+4˚ese101675100 0.0 1016906
20:00+4˚se101676100 0.0 1016909